Regional Weather Roundup
Issued by NWS Grand Forks, ND

Home | Current Version | Previous Version | Graphics & Text | Print | Product List | Glossary On
Versions: 1 2 3 4 5 6 7 8 9 10 11 12 13 14 15 16 17 18 19 20 21 22 23 24 25 26 27 28 29 30 31 32 33 34 35 36 37 38 39 40 41 42 43 44 45 46 47 48 49 50
000
ASUS43 KFGF 212010
RWRFGF
PRAIRIE TO PINES  WEATHER ROUNDUP
NATIONAL WEATHER SERVICE EASTERN NORTH DAKOTA/GRAND FORKS ND
300 PM CDT SAT OCT 21 2017

 **SATELLITE DATA USED TO AUGMENT SKY COVER AT AUTOMATED STATIONS**
 *****  WEATHER ACROSS EASTERN NORTH DAKOTA  *****

CITY           SKY/WX    TMP DP  RH WIND       PRES   REMARKS
GRAND FORKS    PTSUNNY   64  43  46 W22G31    29.46R
GRAND FRKS AFB DRIZZLE   61  43  51 W21G29    29.47S
DEVILS LAKE    PTSUNNY   54  43  66 W18       29.53S
FARGO          CLOUDY    61  45  55 W14       29.53R
WAHPETON ARPT  NOT AVBL
$$

 ***** WEATHER ACROSS CENTRAL AND WESTERN NORTH DAKOTA  *****

CITY           SKY/WX    TMP DP  RH WIND       PRES   REMARKS
BISMARCK       CLOUDY    51  39  63 W16G29    29.64F
MINOT          CLOUDY    50  38  63 W24       29.55S
JAMESTOWN      CLOUDY    52  41  66 W16       29.58R
MINOT AFB      CLOUDY    50  38  64 W20G28    29.53R
GARRISON         N/A     49  37  63 W28G37    29.60R
WILLISTON      CLOUDY    51  34  52 NW25G40   29.65R
DICKINSON      CLOUDY    49  37  63 W28G37    29.66R
HETTINGER      CLOUDY    51  31  46 NW35G43   29.73R
$$

 *****  OTHER AIRPORT OBSERVATIONS IN OUR AREA  *****

CITY           SKY/WX    TMP DP  RH WIND       PRES   REMARKS
WALHALLA       FAIR     N/A N/A N/A W13G21    29.44R
GRAFTON AIRPOR FAIR      63  43  48 W21       29.49R
VALLEY CITY AR CLOUDY    54  45  71 W20G30    29.57R
CANDO          MOCLDY    52  45  76 W24       29.53S
CAVALIER APRT  FAIR      64  45  48 SW13G23   29.44R
GWINNER        MOCLDY    55  41  58 W15G29    29.60R
SHEYENNE NWR     N/A     58  46  63 W15       29.95S
ROLLA          CLOUDY    50  41  71 W20G25    29.49S
 ***** THE ABOVE OBSERVATIONS ARE NON NWS ARE NOT QUALITY
       CONTROLLED AND MAY MIS-REPORT RAIN FOR SNOW...
$$

  *****  WEATHER ACROSS NORTHERN MINNESOTA  *****

CITY           SKY/WX    TMP DP  RH WIND       PRES   REMARKS
FLAG ISLAND    CLOUDY    55  52  88 S8        29.43S
WARROAD        PTSUNNY   63  59  88 S10       29.46R
ROSEAU         PTSUNNY   64  52  63 S10       29.44S
HALLOCK        FAIR      66  39  37 SW17G24   29.43R
THF RVR FALLS  CLOUDY    62  41  46 SW14      29.49R
BAUDETTE       CLOUDY    64  57  78 S14G21    29.47S
WASKISH        CLOUDY    64  57  77 S7G18     29.50S
CROOKSTON      PTSUNNY   63  43  48 W9        29.50R
STEPHEN NDAWN    N/A     64  43  45 W17         N/A
GREENBUSH NDAW   N/A     64  43  45 SW14        N/A
$$
  *****  WEATHER ACROSS CENTRAL AND WEST MINNESOTA  *****

CITY           SKY/WX    TMP DP  RH WIND       PRES   REMARKS
FOSSTON        PTSUNNY   55  50  82 S7        29.50F
BEMIDJI        CLOUDY    61  59  92 S8        29.50F FOG
PARK RAPIDS    CLOUDY    64  60  87 S14G23    29.50F
ELBOW LAKE     CLOUDY    54  47  79 NW10      29.56R
WADENA         CLOUDY    64  59  82 S13       29.51S
DETROIT LAKES  RAIN      52  50  93 W10       29.56R
MOORHEAD       CLOUDY    57  50  77 CALM      29.54S
FERGUS FALLS   CLOUDY    54  46  76 NW10      29.55S
MORRIS MN      PTSUNNY   55  48  76 W17       29.57R
STAPLES        CLOUDY    64  59  82 SE12G18   29.53F
$$
  *****  WEATHER ELSEWHERE ACROSS MINNESOTA  *****

CITY           SKY/WX    TMP DP  RH WIND       PRES   REMARKS
DULUTH         DRIZZLE   58  58 100 S15G22    29.66S FOG
INTRNTL FALLS  CLOUDY    64  56  75 S12G18    29.53S
ELY            CLOUDY    59  55  88 S9G18     29.63S
CLOQUET        CLOUDY    61  57  88 S10G16    29.65S FOG
WHEATON        CLOUDY    55  46  71 W8        29.59R
BRAINERD       CLOUDY    62  60  93 S17G26    29.57F FOG
HIBBING        CLOUDY    59  57  93 S13G22    29.60F
ALEXANDRIA     CLOUDY    64  62  93 W15G22    29.54R
SAINT CLOUD    CLOUDY    64  62  93 S18G28    29.58F
MINNEAPOLIS    CLOUDY    67  62  84 S21G30    29.67S
$$

  *****  WEATHER ACROSS SOUTH DAKOTA  *****

CITY           SKY/WX    TMP DP  RH WIND       PRES   REMARKS
SIOUX FALLS    CLOUDY    58  44  60 NW21G30   29.70R
BROOKINGS      CLOUDY    56  43  61 W24G30    29.66R
WATERTOWN      CLOUDY    55  43  63 W24G33    29.64R
HURON          LGT RAIN  50  42  74 NW18      29.73R
SISSETON         N/A     60  46  59 W17       29.58R
ABERDEEN       CLOUDY    51  42  71 W15       29.67R
MITCHELL       CLOUDY    52  40  63 W18G26    29.76R
PIERRE         FAIR      53  38  56 W16G28    29.75S
MOBRIDGE       CLOUDY    54  39  57 NW17G28   29.67S
RAPID CITY     FAIR      58  20  22 NW23G35   29.83R
$$

  *****  SOME WEATHER IN NEARBY STATES *****

CITY           SKY/WX    TMP DP  RH WIND       PRES   REMARKS
GLASGOW MT     FAIR      55  31  39 NW26G36   29.73R
GREAT FALLS MT FAIR      48  19  31 SW22G33   29.87F
CHEYENNE WY    FAIR      46  10  23 W29G40    30.01R
SCOTTSBLUFF NE FAIR      58  15  18 NW25G32   29.94R
OMAHA NE       PTSUNNY   75  62  64 S15       29.66S
DES MOINES IA  CLOUDY    71  61  70 S20G28    29.77F
DAVENPORT IA   FAIR      79  59  50 S20G29    29.89F
CHICAGO IL     FAIR      76  56  49 S16G23    29.99F
EAU CLAIRE WI  CLOUDY    68  58  70 S23G31    29.76S
LA CROSSE WI   CLOUDY    69  58  67 SE7       29.81F
$$

  *****  SOME NATIONAL WEATHER *****

CITY           SKY/WX    TMP DP  RH WIND       PRES   REMARKS
LA GUARDIA NY  CLOUDY    75  47  36 SW9       30.29S
RALEIGH NC     PTSUNNY   77  50  38 CALM      30.31S
ATLANTA GA     PTSUNNY   76  54  46 SE8       30.24F
NEW ORLEANS LA PTSUNNY   83  75  77 SE21      30.01F HX  90
OKLAHOMA CITY  PTSUNNY   77  63  61 S20G32    29.80S
ALBUQUERQUE NM FAIR      64  24  21 NW17G25   30.07S
SALT LAKE CITY PTSUNNY   53  21  28 N7        30.23F
LOS ANGELES CA FAIR      72  56  57 W13       30.05F
BOISE ID       CLOUDY    50  29  44 SE12      30.15F
SEATTLE WA     LGT RAIN  49  46  90 SE7       29.76S FOG
$$

*** WEATHER ACROSS MANITOBA...SASKATCHEWAN AND ONTARIO ***
                ***ONTARIO***

CITY           SKY/WX    TMP DP  RH WIND       PRES   REMARKS
GERALDTON      PTSUNNY   66  50  55 S23G33    29.76F
THUNDER BAY    CLOUDY    64  55  72 S13G23    29.72S
SIOUX LOOKOUT  CLOUDY    63  54  72 S12       29.54S
TORONTO        PTSUNNY   70  54  56 SE8       30.21F
BIG TROUT LK   CLOUDY    46  39  76 SE16G22   29.57F
PICKLE LAKE    CLOUDY    66  54  63 S12       29.55F
DRYDEN         CLOUDY    63  55  77 S15G23    29.52S
KENORA         CLOUDY    63  55  77 S13G21    29.46S
$$
                *** MANITOBA***

CITY           SKY/WX    TMP DP  RH WIND       PRES   REMARKS
BRANDON        CLOUDY    54  39  58 W21G29    29.41S
DAUPHIN        CLOUDY    48  41  76 W22G31    29.35R
ISLAND LAKE    CLOUDY    66  54  63 SE13      29.31F
PILOT MOUND      N/A     52  39  62 W14G26      N/A
THE PAS        CLOUDY    43  37  81 NW13      29.31R
THOMPSON       CLOUDY    52  43  71 N7        29.29S
WINNIPEG       PTSUNNY   63  41  45 SW17      29.37R
LYNN LAKE      LGT RAIN  36  34  93 N8        29.39S
CHURCHILL      CLOUDY    37  34  87 SE15G22   29.46F
GILLAM         PTSUNNY   54  41  62 SE8       29.35F
$$
                ***SASKATCHEWAN***

CITY           SKY/WX    TMP DP  RH WIND       PRES   REMARKS
ESTEVAN        CLOUDY    45  36  70 W23G31    29.55R
KINDERSLEY     MOSUNNY   50  30  46 NW16G26   29.67R
LLOYDMINSTER   MOSUNNY   48  28  46 NW18G25   29.63R
PRINCE ALBERT  LGT RAIN  39  37  93 NW15G23   29.50R FOG
REGINA         LGT RAIN  41  37  87 NW25G32   29.54R
YORKTON        CLOUDY    43  37  81 W21       29.41R
N. BATTLEFORD  SUNNY     45  36  70 NW15      29.62R
LA RONGE       LGT RAIN  37  36  93 NW7       29.49R
SASKATOON      LGT RAIN  41  39  93 W16G24    29.59R
SWIFT CURRENT  MOSUNNY   48  34  57 W24G31    29.66S
$$
NOTE: THESE ARE AUTOMATED STATIONS WITH LIMITED QUALITY CONTROL
      "FAIR" INDICATES FEW OR NO CLOUDS BELOW 12,000 FEET WITH NO
      SIGNIFICANT WEATHER AND/OR OBSTRUCTIONS TO VISIBILITY.
      SKY/WX - SKY CONDITION AND SIGNIFICANT WEATHER.
      TMP - AIR TEMPERATURE.    DP   - DEWPOINT TEMPERATURE.
      RH  - RELATIVE HUMIDITY.  PRES - PRESSURE.
      HX  - HEAT INDEX.         WCI  - WIND CHILL INDEX.
$




USA.gov is the U.S. government's official web portal to all federal, state and local government web resources and services.